This demonstration page uses our WeatherBlox Daily Observations layout. Learn more.

Left ArrowRight Arrow

Hourly Observations for January 31, 2015

Temp ( °F °C ) Dew Point ( °F °C ) Humidity (%) Winds ( mph kmh ) Pressure ( in mb ) Visibility ( mi km ) Precip ( " mm )
12:51 am 00:51 Cloudy with Light Rain 47 8.3 46 7.8 97 97 S 7 11 29.86 1011 3 4 0.05 1.27
1:06 am 01:06 Cloudy with Light Rain 47 8.3 46 7.8 97 97 SSE 5 7 29.94 1014 3 5 0.01 0.25
1:51 am 01:51 Cloudy with Light Rain 47 8.3 46 7.8 97 97 SE 5 7 29.84 1011 5 8 0.05 1.27
2:29 am 02:29 Cloudy with Light Rain 47 8.3 46 7.8 97 97 SE 8 13 29.91 1013 5 8 0.02 0.51
2:38 am 02:38 Cloudy with Light Rain 47 8.3 46 7.8 97 97 ESE 7 11 29.91 1013 6 10 0.03 0.76
2:51 am 02:51 Cloudy with Light Rain 47 8.3 46 7.8 97 97 ESE 8 13 29.82 1010 9 14 0.03 0.76
3:51 am 03:51 Cloudy with Light Rain 47 8.3 45 7.2 93 93 SE 7 11 29.81 1009 10 16 0.02 0.51
4:26 am 04:26 Cloudy 47 8.3 45 7.2 93 93 SSE 7 11 29.83 1010 10 16 N/A
4:51 am 04:51 Cloudy 47 8.3 45 7.2 93 93 ESE 7 11 29.79 1009 10 16 N/A
5:20 am 05:20 Cloudy 47 8.3 45 7.2 93 93 SE 9 15 29.83 1010 10 16 N/A
5:51 am 05:51 Cloudy 47 8.3 45 7.2 93 93 SE 8 13 29.79 1009 10 16 N/A
6:51 am 06:51 Cloudy 47 8.3 45 7.2 93 93 ESE 8 13 29.80 1009 10 16 N/A
7:18 am 07:18 Cloudy with Light Rain 47 8.3 45 7.2 93 93 SE 8 13 29.85 1011 10 16 N/A
7:51 am 07:51 Cloudy with Light Rain 47 8.3 45 7.2 93 93 SSE 7 11 29.82 1010 10 16 N/A
8:51 am 08:51 Cloudy with Light Rain 48 8.9 46 7.8 93 93 SE 7 11 29.83 1010 4 6 0.01 0.25
9:51 am 09:51 Cloudy 49 9.4 47 8.3 93 93 ESE 7 11 29.85 1011 10 16 0.02 0.51
10:35 am 10:35 Cloudy with Light Rain 50 10 47 8.3 89 89 ESE 8 13 29.91 1013 9 14 0.01 0.25
10:51 am 10:51 Cloudy with Light Rain 50 10 47 8.3 89 89 E 8 13 29.85 1011 10 16 0.01 0.25
11:20 am 11:20 Cloudy with Light Rain 51 10.6 47 8.3 86 86 E 9 15 29.85 1011 10 16 0.01 0.25
11:51 am 11:51 Cloudy with Light Rain 52 11.1 47 8.3 83 83 E 7 11 29.83 1010 10 16 0.01 0.25
12:51 pm 12:51 Cloudy 53 11.7 45 7.2 74 74 ESE 7 11 29.81 1009 10 16 N/A
1:51 pm 13:51 Cloudy with Light Rain 53 11.7 46 7.8 77 77 ESE 7 11 29.80 1009 10 16 N/A
2:51 pm 14:51 Cloudy with Light Rain 52 11.1 46 7.8 80 80 N N/A 29.80 1009 10 16 0.01 0.25
3:51 pm 15:51 Cloudy 52 11.1 47 8.3 83 83 W 5 7 29.80 1009 10 16 N/A
4:51 pm 16:51 Cloudy with Light Rain 51 10.6 45 7.2 80 80 N N/A 29.82 1010 10 16 0.01 0.25
5:51 pm 17:51 Cloudy 51 10.6 48 8.9 89 89 WSW 3 6 29.83 1010 10 16 0.01 0.25
6:51 pm 18:51 Mostly Cloudy 50 10 48 8.9 93 93 WNW 5 7 29.85 1011 10 16 N/A
7:51 pm 19:51 Cloudy 50 10 46 7.8 86 86 WNW 6 9 29.87 1012 10 16 N/A
8:51 pm 20:51 Cloudy 50 10 48 8.9 93 93 W 7 11 29.89 1012 10 16 N/A
9:44 pm 21:44 Cloudy with Light Rain 49 9.4 48 8.9 97 97 NW 7 11 29.94 1014 8 13 0.01 0.25
9:51 pm 21:51 Cloudy 49 9.4 48 8.9 97 97 NW 7 11 29.89 1012 10 16 0.01 0.25
10:51 pm 22:51 Cloudy with Light Rain 49 9.4 47 8.3 93 93 WNW 8 13 29.90 1012 10 16 N/A
11:44 pm 23:44 Mostly Cloudy 49 9.4 48 8.9 97 97 W 7 11 29.94 1014 9 14 N/A
11:51 pm 23:51 Cloudy 49 9.4 48 8.9 97 97 WNW 8 13 29.91 1013 10 16 N/A

Powered by AerisWeather